owner,sensor,date,latitude,longitude,vertical_datum,sea_water_temperature,qcFlag 
TCOON,ioos:station:TCOON:042:1,2014-01-01T00:00:00Z,27.8888,-97.5696,0.0,7.9,2 
TCOON,ioos:station:TCOON:042:1,2014-01-01T00:30:00Z,27.8888,-97.5696,0.0,7.9,2 
TCOON,ioos:station:TCOON:042:1,2014-01-01T01:00:00Z,27.8888,-97.5696,0.0,7.8,2 
TCOON,ioos:station:TCOON:042:1,2014-01-01T01:30:00Z,27.8888,-97.5696,0.0,7.8,2 
TCOON,ioos:station:TCOON:042:1,2014-01-01T02:00:00Z,27.8888,-97.5696,0.0,7.7,2 
TCOON,ioos:station:TCOON:042:1,2014-01-01T02:30:00Z,27.8888,-97.5696,0.0,7.7,2 
TCOON,ioos:station:TCOON:042:1,2014-01-01T03:00:00Z,27.8888,-97.5696,0.0,7.7,2 
TCOON,ioos:station:TCOON:042:1,2014-01-01T04:00:00Z,27.8888,-97.5696,0.0,7.6,2 
TCOON,ioos:station:TCOON:042:1,2014-01-01T04:30:00Z,27.8888,-97.5696,0.0,7.6,2 
TCOON,ioos:station:TCOON:042:1,2014-01-01T05:00:00Z,27.8888,-97.5696,0.0,7.6,2 
TCOON,ioos:station:TCOON:042:1,2014-01-01T05:30:00Z,27.8888,-97.5696,0.0,7.7,2 
TCOON,ioos:station:TCOON:042:1,2014-01-01T06:00:00Z,27.8888,-97.5696,0.0,7.8,2 
TCOON,ioos:station:TCOON:042:1,2014-01-01T06:30:00Z,27.8888,-97.5696,0.0,7.8,2 
TCOON,ioos:station:TCOON:042:1,2014-01-01T07:00:00Z,27.8888,-97.5696,0.0,8.0,2 
TCOON,ioos:station:TCOON:042:1,2014-01-01T07:30:00Z,27.8888,-97.5696,0.0,8.1,2 
TCOON,ioos:station:TCOON:042:1,2014-01-01T08:00:00Z,27.8888,-97.5696,0.0,8.0,2 
TCOON,ioos:station:TCOON:042:1,2014-01-01T08:30:00Z,27.8888,-97.5696,0.0,7.9,2 
TCOON,ioos:station:TCOON:042:1,2014-01-01T09:00:00Z,27.8888,-97.5696,0.0,7.9,2 
TCOON,ioos:station:TCOON:042:1,2014-01-01T09:30:00Z,27.8888,-97.5696,0.0,8.0,2 
TCOON,ioos:station:TCOON:042:1,2014-01-01T10:00:00Z,27.8888,-97.5696,0.0,8.0,2 
TCOON,ioos:station:TCOON:042:1,2014-01-01T10:30:00Z,27.8888,-97.5696,0.0,8.0,2 
TCOON,ioos:station:TCOON:042:1,2014-01-01T11:00:00Z,27.8888,-97.5696,0.0,8.0,2 
TCOON,ioos:station:TCOON:042:1,2014-01-01T11:30:00Z,27.8888,-97.5696,0.0,8.0,2 
TCOON,ioos:station:TCOON:042:1,2014-01-01T12:00:00Z,27.8888,-97.5696,0.0,8.1,2 
TCOON,ioos:station:TCOON:042:1,2014-01-01T12:30:00Z,27.8888,-97.5696,0.0,8.1,2 
TCOON,ioos:station:TCOON:042:1,2014-01-01T13:00:00Z,27.8888,-97.5696,0.0,8.1,2 
TCOON,ioos:station:TCOON:042:1,2014-01-01T13:30:00Z,27.8888,-97.5696,0.0,8.0,2 
TCOON,ioos:station:TCOON:042:1,2014-01-01T14:00:00Z,27.8888,-97.5696,0.0,8.1,2 
TCOON,ioos:station:TCOON:042:1,2014-01-01T14:30:00Z,27.8888,-97.5696,0.0,8.1,2 
TCOON,ioos:station:TCOON:042:1,2014-01-01T15:00:00Z,27.8888,-97.5696,0.0,8.1,2 
TCOON,ioos:station:TCOON:042:1,2014-01-01T15:30:00Z,27.8888,-97.5696,0.0,8.2,2 
TCOON,ioos:station:TCOON:042:1,2014-01-01T16:00:00Z,27.8888,-97.5696,0.0,8.3,2 
TCOON,ioos:station:TCOON:042:1,2014-01-01T16:30:00Z,27.8888,-97.5696,0.0,8.5,2 
TCOON,ioos:station:TCOON:042:1,2014-01-01T17:00:00Z,27.8888,-97.5696,0.0,8.7,2 
TCOON,ioos:station:TCOON:042:1,2014-01-01T17:30:00Z,27.8888,-97.5696,0.0,9.0,2 
TCOON,ioos:station:TCOON:042:1,2014-01-01T18:00:00Z,27.8888,-97.5696,0.0,9.3,2 
TCOON,ioos:station:TCOON:042:1,2014-01-01T18:30:00Z,27.8888,-97.5696,0.0,9.7,2 
TCOON,ioos:station:TCOON:042:1,2014-01-01T19:00:00Z,27.8888,-97.5696,0.0,10.2,2 
TCOON,ioos:station:TCOON:042:1,2014-01-01T19:30:00Z,27.8888,-97.5696,0.0,10.5,2 
TCOON,ioos:station:TCOON:042:1,2014-01-01T20:00:00Z,27.8888,-97.5696,0.0,10.8,2 
TCOON,ioos:station:TCOON:042:1,2014-01-01T20:30:00Z,27.8888,-97.5696,0.0,11.1,2 
TCOON,ioos:station:TCOON:042:1,2014-01-01T21:00:00Z,27.8888,-97.5696,0.0,11.4,2 
TCOON,ioos:station:TCOON:042:1,2014-01-01T21:30:00Z,27.8888,-97.5696,0.0,11.6,2 
TCOON,ioos:station:TCOON:042:1,2014-01-01T22:00:00Z,27.8888,-97.5696,0.0,11.7,2 
TCOON,ioos:station:TCOON:042:1,2014-01-01T22:30:00Z,27.8888,-97.5696,0.0,11.8,2 
TCOON,ioos:station:TCOON:042:1,2014-01-01T23:00:00Z,27.8888,-97.5696,0.0,12.0,2 
TCOON,ioos:station:TCOON:042:1,2014-01-01T23:30:00Z,27.8888,-97.5696,0.0,12.1,2 
TCOON,ioos:station:TCOON:042:1,2014-01-02T00:00:00Z,27.8888,-97.5696,0.0,12.1,2 
TCOON,ioos:station:TCOON:042:1,2014-01-02T00:30:00Z,27.8888,-97.5696,0.0,12.1,2 
TCOON,ioos:station:TCOON:042:1,2014-01-02T01:00:00Z,27.8888,-97.5696,0.0,12.1,2 
TCOON,ioos:station:TCOON:042:1,2014-01-02T01:30:00Z,27.8888,-97.5696,0.0,12.1,2 
TCOON,ioos:station:TCOON:042:1,2014-01-02T02:00:00Z,27.8888,-97.5696,0.0,12.2,2 
TCOON,ioos:station:TCOON:042:1,2014-01-02T02:30:00Z,27.8888,-97.5696,0.0,12.2,2 
TCOON,ioos:station:TCOON:042:1,2014-01-02T03:00:00Z,27.8888,-97.5696,0.0,12.2,2 
TCOON,ioos:station:TCOON:042:1,2014-01-02T03:30:00Z,27.8888,-97.5696,0.0,12.2,2 
TCOON,ioos:station:TCOON:042:1,2014-01-02T04:00:00Z,27.8888,-97.5696,0.0,12.2,2 
TCOON,ioos:station:TCOON:042:1,2014-01-02T04:30:00Z,27.8888,-97.5696,0.0,12.2,2 
TCOON,ioos:station:TCOON:042:1,2014-01-02T05:00:00Z,27.8888,-97.5696,0.0,12.3,2 
TCOON,ioos:station:TCOON:042:1,2014-01-02T05:30:00Z,27.8888,-97.5696,0.0,12.3,2 
TCOON,ioos:station:TCOON:042:1,2014-01-02T06:30:00Z,27.8888,-97.5696,0.0,12.4,2 
TCOON,ioos:station:TCOON:042:1,2014-01-02T07:00:00Z,27.8888,-97.5696,0.0,12.4,2 
TCOON,ioos:station:TCOON:042:1,2014-01-02T07:30:00Z,27.8888,-97.5696,0.0,12.4,2 
TCOON,ioos:station:TCOON:042:1,2014-01-02T08:00:00Z,27.8888,-97.5696,0.0,12.5,2 
TCOON,ioos:station:TCOON:042:1,2014-01-02T08:30:00Z,27.8888,-97.5696,0.0,12.5,2 
TCOON,ioos:station:TCOON:042:1,2014-01-02T09:00:00Z,27.8888,-97.5696,0.0,12.5,2 
TCOON,ioos:station:TCOON:042:1,2014-01-02T09:30:00Z,27.8888,-97.5696,0.0,12.6,2 
TCOON,ioos:station:TCOON:042:1,2014-01-02T10:00:00Z,27.8888,-97.5696,0.0,12.6,2 
TCOON,ioos:station:TCOON:042:1,2014-01-02T10:30:00Z,27.8888,-97.5696,0.0,12.6,2 
TCOON,ioos:station:TCOON:042:1,2014-01-02T11:00:00Z,27.8888,-97.5696,0.0,12.6,2 
TCOON,ioos:station:TCOON:042:1,2014-01-02T11:30:00Z,27.8888,-97.5696,0.0,12.5,2 
TCOON,ioos:station:TCOON:042:1,2014-01-02T12:00:00Z,27.8888,-97.5696,0.0,12.4,2 
TCOON,ioos:station:TCOON:042:1,2014-01-02T12:30:00Z,27.8888,-97.5696,0.0,11.6,2 
TCOON,ioos:station:TCOON:042:1,2014-01-02T13:00:00Z,27.8888,-97.5696,0.0,10.3,2 
TCOON,ioos:station:TCOON:042:1,2014-01-02T13:30:00Z,27.8888,-97.5696,0.0,9.9,2 
TCOON,ioos:station:TCOON:042:1,2014-01-02T14:00:00Z,27.8888,-97.5696,0.0,9.5,2 
TCOON,ioos:station:TCOON:042:1,2014-01-02T14:30:00Z,27.8888,-97.5696,0.0,10.9,2 
TCOON,ioos:station:TCOON:042:1,2014-01-02T15:00:00Z,27.8888,-97.5696,0.0,11.1,2 
TCOON,ioos:station:TCOON:042:1,2014-01-02T15:30:00Z,27.8888,-97.5696,0.0,10.9,2 
TCOON,ioos:station:TCOON:042:1,2014-01-02T16:00:00Z,27.8888,-97.5696,0.0,10.8,2 
TCOON,ioos:station:TCOON:042:1,2014-01-02T16:30:00Z,27.8888,-97.5696,0.0,10.7,2 
TCOON,ioos:station:TCOON:042:1,2014-01-02T17:30:00Z,27.8888,-97.5696,0.0,10.4,2 
TCOON,ioos:station:TCOON:042:1,2014-01-02T18:00:00Z,27.8888,-97.5696,0.0,10.5,2 
TCOON,ioos:station:TCOON:042:1,2014-01-02T18:30:00Z,27.8888,-97.5696,0.0,11.0,2 
TCOON,ioos:station:TCOON:042:1,2014-01-02T19:00:00Z,27.8888,-97.5696,0.0,11.5,2 
TCOON,ioos:station:TCOON:042:1,2014-01-02T20:00:00Z,27.8888,-97.5696,0.0,12.5,2 
TCOON,ioos:station:TCOON:042:1,2014-01-02T20:30:00Z,27.8888,-97.5696,0.0,12.7,2 
TCOON,ioos:station:TCOON:042:1,2014-01-02T21:00:00Z,27.8888,-97.5696,0.0,13.0,2 
TCOON,ioos:station:TCOON:042:1,2014-01-02T22:00:00Z,27.8888,-97.5696,0.0,13.2,2 
TCOON,ioos:station:TCOON:042:1,2014-01-02T23:00:00Z,27.8888,-97.5696,0.0,13.0,2 
TCOON,ioos:station:TCOON:042:1,2014-01-02T23:30:00Z,27.8888,-97.5696,0.0,12.7,2 
TCOON,ioos:station:TCOON:042:1,2014-01-03T00:00:00Z,27.8888,-97.5696,0.0,12.3,2 
TCOON,ioos:station:TCOON:042:1,2014-01-03T00:30:00Z,27.8888,-97.5696,0.0,12.0,2 
TCOON,ioos:station:TCOON:042:1,2014-01-03T01:00:00Z,27.8888,-97.5696,0.0,11.6,2 
TCOON,ioos:station:TCOON:042:1,2014-01-03T01:30:00Z,27.8888,-97.5696,0.0,11.0,2 
TCOON,ioos:station:TCOON:042:1,2014-01-03T02:00:00Z,27.8888,-97.5696,0.0,10.6,2 
TCOON,ioos:station:TCOON:042:1,2014-01-03T02:30:00Z,27.8888,-97.5696,0.0,10.2,2 
TCOON,ioos:station:TCOON:042:1,2014-01-03T03:00:00Z,27.8888,-97.5696,0.0,9.9,2 
TCOON,ioos:station:TCOON:042:1,2014-01-03T03:30:00Z,27.8888,-97.5696,0.0,9.5,2 
TCOON,ioos:station:TCOON:042:1,2014-01-03T04:00:00Z,27.8888,-97.5696,0.0,9.2,2 
TCOON,ioos:station:TCOON:042:1,2014-01-03T10:30:00Z,27.8888,-97.5696,0.0,5.2,2 
TCOON,ioos:station:TCOON:042:1,2014-01-03T11:00:00Z,27.8888,-97.5696,0.0,5.1,2 
TCOON,ioos:station:TCOON:042:1,2014-01-03T11:30:00Z,27.8888,-97.5696,0.0,5.0,2 
TCOON,ioos:station:TCOON:042:1,2014-01-03T12:00:00Z,27.8888,-97.5696,0.0,4.9,2 
TCOON,ioos:station:TCOON:042:1,2014-01-03T12:30:00Z,27.8888,-97.5696,0.0,4.8,2 
TCOON,ioos:station:TCOON:042:1,2014-01-03T13:00:00Z,27.8888,-97.5696,0.0,4.4,2 
TCOON,ioos:station:TCOON:042:1,2014-01-03T13:30:00Z,27.8888,-97.5696,0.0,4.3,2 
TCOON,ioos:station:TCOON:042:1,2014-01-03T14:00:00Z,27.8888,-97.5696,0.0,4.1,2 
TCOON,ioos:station:TCOON:042:1,2014-01-03T14:30:00Z,27.8888,-97.5696,0.0,4.0,2 
TCOON,ioos:station:TCOON:042:1,2014-01-03T15:00:00Z,27.8888,-97.5696,0.0,4.4,2 
TCOON,ioos:station:TCOON:042:1,2014-01-03T15:30:00Z,27.8888,-97.5696,0.0,4.9,2 
TCOON,ioos:station:TCOON:042:1,2014-01-03T16:00:00Z,27.8888,-97.5696,0.0,6.1,2 
TCOON,ioos:station:TCOON:042:1,2014-01-03T16:30:00Z,27.8888,-97.5696,0.0,7.2,2 
TCOON,ioos:station:TCOON:042:1,2014-01-03T17:00:00Z,27.8888,-97.5696,0.0,7.9,2 
TCOON,ioos:station:TCOON:042:1,2014-01-03T17:30:00Z,27.8888,-97.5696,0.0,7.8,2 
TCOON,ioos:station:TCOON:042:1,2014-01-03T18:00:00Z,27.8888,-97.5696,0.0,8.2,2 
TCOON,ioos:station:TCOON:042:1,2014-01-03T18:30:00Z,27.8888,-97.5696,0.0,8.8,2 
TCOON,ioos:station:TCOON:042:1,2014-01-03T19:00:00Z,27.8888,-97.5696,0.0,9.5,2 
TCOON,ioos:station:TCOON:042:1,2014-01-03T19:30:00Z,27.8888,-97.5696,0.0,10.8,2 
TCOON,ioos:station:TCOON:042:1,2014-01-03T20:00:00Z,27.8888,-97.5696,0.0,12.3,2 
TCOON,ioos:station:TCOON:042:1,2014-01-03T20:30:00Z,27.8888,-97.5696,0.0,14.5,2 
TCOON,ioos:station:TCOON:042:1,2014-01-03T21:00:00Z,27.8888,-97.5696,0.0,16.5,2 
TCOON,ioos:station:TCOON:042:1,2014-01-03T21:30:00Z,27.8888,-97.5696,0.0,17.1,2 
TCOON,ioos:station:TCOON:042:1,2014-01-03T22:00:00Z,27.8888,-97.5696,0.0,16.9,2 
TCOON,ioos:station:TCOON:042:1,2014-01-03T22:30:00Z,27.8888,-97.5696,0.0,16.3,2 
TCOON,ioos:station:TCOON:042:1,2014-01-03T23:00:00Z,27.8888,-97.5696,0.0,15.8,2 
TCOON,ioos:station:TCOON:042:1,2014-01-03T23:30:00Z,27.8888,-97.5696,0.0,15.2,2 
TCOON,ioos:station:TCOON:042:1,2014-01-04T00:00:00Z,27.8888,-97.5696,0.0,13.7,2 
TCOON,ioos:station:TCOON:042:1,2014-01-04T00:30:00Z,27.8888,-97.5696,0.0,12.8,2 
TCOON,ioos:station:TCOON:042:1,2014-01-04T01:00:00Z,27.8888,-97.5696,0.0,11.2,2 
TCOON,ioos:station:TCOON:042:1,2014-01-04T02:00:00Z,27.8888,-97.5696,0.0,11.0,2 
TCOON,ioos:station:TCOON:042:1,2014-01-04T03:00:00Z,27.8888,-97.5696,0.0,11.2,2 
TCOON,ioos:station:TCOON:042:1,2014-01-04T03:30:00Z,27.8888,-97.5696,0.0,11.2,2 
TCOON,ioos:station:TCOON:042:1,2014-01-04T04:00:00Z,27.8888,-97.5696,0.0,11.2,2 
TCOON,ioos:station:TCOON:042:1,2014-01-04T04:30:00Z,27.8888,-97.5696,0.0,11.0,2 
TCOON,ioos:station:TCOON:042:1,2014-01-04T05:00:00Z,27.8888,-97.5696,0.0,11.2,2 
TCOON,ioos:station:TCOON:042:1,2014-01-04T05:30:00Z,27.8888,-97.5696,0.0,11.0,2 
TCOON,ioos:station:TCOON:042:1,2014-01-04T06:00:00Z,27.8888,-97.5696,0.0,10.7,2 
TCOON,ioos:station:TCOON:042:1,2014-01-04T06:30:00Z,27.8888,-97.5696,0.0,10.5,2 
TCOON,ioos:station:TCOON:042:1,2014-01-04T07:00:00Z,27.8888,-97.5696,0.0,10.4,2 
TCOON,ioos:station:TCOON:042:1,2014-01-04T07:30:00Z,27.8888,-97.5696,0.0,10.3,2 
TCOON,ioos:station:TCOON:042:1,2014-01-04T08:30:00Z,27.8888,-97.5696,0.0,10.0,2 
TCOON,ioos:station:TCOON:042:1,2014-01-04T09:00:00Z,27.8888,-97.5696,0.0,9.9,2 
TCOON,ioos:station:TCOON:042:1,2014-01-04T09:30:00Z,27.8888,-97.5696,0.0,9.7,2 
TCOON,ioos:station:TCOON:042:1,2014-01-04T10:00:00Z,27.8888,-97.5696,0.0,9.7,2 
TCOON,ioos:station:TCOON:042:1,2014-01-04T11:00:00Z,27.8888,-97.5696,0.0,9.5,2 
TCOON,ioos:station:TCOON:042:1,2014-01-04T11:30:00Z,27.8888,-97.5696,0.0,9.4,2 
TCOON,ioos:station:TCOON:042:1,2014-01-04T12:00:00Z,27.8888,-97.5696,0.0,9.1,2 
TCOON,ioos:station:TCOON:042:1,2014-01-04T12:30:00Z,27.8888,-97.5696,0.0,9.0,2 
TCOON,ioos:station:TCOON:042:1,2014-01-04T13:00:00Z,27.8888,-97.5696,0.0,9.0,2 
TCOON,ioos:station:TCOON:042:1,2014-01-04T13:30:00Z,27.8888,-97.5696,0.0,8.9,2 
TCOON,ioos:station:TCOON:042:1,2014-01-04T14:00:00Z,27.8888,-97.5696,0.0,8.8,2 
TCOON,ioos:station:TCOON:042:1,2014-01-04T14:30:00Z,27.8888,-97.5696,0.0,8.9,2 
TCOON,ioos:station:TCOON:042:1,2014-01-04T15:00:00Z,27.8888,-97.5696,0.0,9.1,2 
TCOON,ioos:station:TCOON:042:1,2014-01-04T15:30:00Z,27.8888,-97.5696,0.0,9.4,2 
TCOON,ioos:station:TCOON:042:1,2014-01-04T16:00:00Z,27.8888,-97.5696,0.0,9.7,2 
TCOON,ioos:station:TCOON:042:1,2014-01-04T16:30:00Z,27.8888,-97.5696,0.0,10.2,2 
TCOON,ioos:station:TCOON:042:1,2014-01-04T17:00:00Z,27.8888,-97.5696,0.0,11.1,2 
TCOON,ioos:station:TCOON:042:1,2014-01-04T17:30:00Z,27.8888,-97.5696,0.0,13.3,2 
TCOON,ioos:station:TCOON:042:1,2014-01-04T18:00:00Z,27.8888,-97.5696,0.0,17.8,2 
TCOON,ioos:station:TCOON:042:1,2014-01-04T18:30:00Z,27.8888,-97.5696,0.0,18.4,2 
TCOON,ioos:station:TCOON:042:1,2014-01-04T19:00:00Z,27.8888,-97.5696,0.0,20.0,2 
TCOON,ioos:station:TCOON:042:1,2014-01-04T19:30:00Z,27.8888,-97.5696,0.0,20.4,2 
TCOON,ioos:station:TCOON:042:1,2014-01-04T20:00:00Z,27.8888,-97.5696,0.0,20.6,2 
TCOON,ioos:station:TCOON:042:1,2014-01-04T20:30:00Z,27.8888,-97.5696,0.0,21.1,2 
TCOON,ioos:station:TCOON:042:1,2014-01-04T21:00:00Z,27.8888,-97.5696,0.0,20.9,2 
TCOON,ioos:station:TCOON:042:1,2014-01-04T21:30:00Z,27.8888,-97.5696,0.0,20.6,2 
TCOON,ioos:station:TCOON:042:1,2014-01-04T22:00:00Z,27.8888,-97.5696,0.0,20.4,2 
TCOON,ioos:station:TCOON:042:1,2014-01-04T22:30:00Z,27.8888,-97.5696,0.0,20.2,2 
TCOON,ioos:station:TCOON:042:1,2014-01-04T23:30:00Z,27.8888,-97.5696,0.0,18.8,2 
TCOON,ioos:station:TCOON:042:1,2014-01-05T00:00:00Z,27.8888,-97.5696,0.0,18.0,2 
TCOON,ioos:station:TCOON:042:1,2014-01-05T00:30:00Z,27.8888,-97.5696,0.0,17.4,2 
TCOON,ioos:station:TCOON:042:1,2014-01-05T01:00:00Z,27.8888,-97.5696,0.0,17.0,2 
TCOON,ioos:station:TCOON:042:1,2014-01-05T01:30:00Z,27.8888,-97.5696,0.0,16.7,2 
TCOON,ioos:station:TCOON:042:1,2014-01-05T02:00:00Z,27.8888,-97.5696,0.0,16.4,2 
TCOON,ioos:station:TCOON:042:1,2014-01-05T02:30:00Z,27.8888,-97.5696,0.0,16.2,2 
TCOON,ioos:station:TCOON:042:1,2014-01-05T03:00:00Z,27.8888,-97.5696,0.0,16.0,2 
TCOON,ioos:station:TCOON:042:1,2014-01-05T03:30:00Z,27.8888,-97.5696,0.0,15.8,2 
TCOON,ioos:station:TCOON:042:1,2014-01-05T04:00:00Z,27.8888,-97.5696,0.0,15.7,2 
TCOON,ioos:station:TCOON:042:1,2014-01-05T04:30:00Z,27.8888,-97.5696,0.0,15.5,2 
TCOON,ioos:station:TCOON:042:1,2014-01-05T05:00:00Z,27.8888,-97.5696,0.0,15.3,2 
TCOON,ioos:station:TCOON:042:1,2014-01-05T05:30:00Z,27.8888,-97.5696,0.0,15.2,2 
TCOON,ioos:station:TCOON:042:1,2014-01-05T06:00:00Z,27.8888,-97.5696,0.0,15.1,2 
TCOON,ioos:station:TCOON:042:1,2014-01-05T07:00:00Z,27.8888,-97.5696,0.0,14.9,2 
TCOON,ioos:station:TCOON:042:1,2014-01-05T07:30:00Z,27.8888,-97.5696,0.0,14.9,2 
TCOON,ioos:station:TCOON:042:1,2014-01-05T08:30:00Z,27.8888,-97.5696,0.0,14.8,2 
TCOON,ioos:station:TCOON:042:1,2014-01-05T09:00:00Z,27.8888,-97.5696,0.0,14.7,2 
TCOON,ioos:station:TCOON:042:1,2014-01-05T09:30:00Z,27.8888,-97.5696,0.0,14.7,2 
TCOON,ioos:station:TCOON:042:1,2014-01-05T10:00:00Z,27.8888,-97.5696,0.0,14.7,2 
TCOON,ioos:station:TCOON:042:1,2014-01-05T10:30:00Z,27.8888,-97.5696,0.0,14.7,2 
TCOON,ioos:station:TCOON:042:1,2014-01-05T11:00:00Z,27.8888,-97.5696,0.0,14.5,2 
TCOON,ioos:station:TCOON:042:1,2014-01-05T11:30:00Z,27.8888,-97.5696,0.0,14.4,2 
TCOON,ioos:station:TCOON:042:1,2014-01-05T12:00:00Z,27.8888,-97.5696,0.0,14.3,2 
TCOON,ioos:station:TCOON:042:1,2014-01-05T12:30:00Z,27.8888,-97.5696,0.0,14.2,2 
TCOON,ioos:station:TCOON:042:1,2014-01-05T13:30:00Z,27.8888,-97.5696,0.0,14.0,2 
TCOON,ioos:station:TCOON:042:1,2014-01-05T14:00:00Z,27.8888,-97.5696,0.0,13.9,2 
TCOON,ioos:station:TCOON:042:1,2014-01-05T14:30:00Z,27.8888,-97.5696,0.0,14.0,2 
TCOON,ioos:station:TCOON:042:1,2014-01-05T15:00:00Z,27.8888,-97.5696,0.0,14.6,2 
TCOON,ioos:station:TCOON:042:1,2014-01-05T15:30:00Z,27.8888,-97.5696,0.0,14.8,2 
TCOON,ioos:station:TCOON:042:1,2014-01-05T16:00:00Z,27.8888,-97.5696,0.0,14.6,2 
TCOON,ioos:station:TCOON:042:1,2014-01-05T16:30:00Z,27.8888,-97.5696,0.0,15.3,2 
TCOON,ioos:station:TCOON:042:1,2014-01-05T17:00:00Z,27.8888,-97.5696,0.0,16.3,2 
TCOON,ioos:station:TCOON:042:1,2014-01-05T17:30:00Z,27.8888,-97.5696,0.0,16.0,2 
TCOON,ioos:station:TCOON:042:1,2014-01-05T18:00:00Z,27.8888,-97.5696,0.0,14.7,2 
TCOON,ioos:station:TCOON:042:1,2014-01-05T18:30:00Z,27.8888,-97.5696,0.0,15.1,2 
TCOON,ioos:station:TCOON:042:1,2014-01-05T19:00:00Z,27.8888,-97.5696,0.0,14.5,2 
TCOON,ioos:station:TCOON:042:1,2014-01-05T19:30:00Z,27.8888,-97.5696,0.0,14.4,2 
TCOON,ioos:station:TCOON:042:1,2014-01-05T20:00:00Z,27.8888,-97.5696,0.0,14.5,2 
TCOON,ioos:station:TCOON:042:1,2014-01-05T20:30:00Z,27.8888,-97.5696,0.0,14.9,2 
TCOON,ioos:station:TCOON:042:1,2014-01-05T21:00:00Z,27.8888,-97.5696,0.0,14.9,2 
TCOON,ioos:station:TCOON:042:1,2014-01-05T21:30:00Z,27.8888,-97.5696,0.0,14.7,2 
TCOON,ioos:station:TCOON:042:1,2014-01-05T22:00:00Z,27.8888,-97.5696,0.0,14.7,2 
TCOON,ioos:station:TCOON:042:1,2014-01-05T22:30:00Z,27.8888,-97.5696,0.0,14.6,2 
TCOON,ioos:station:TCOON:042:1,2014-01-05T23:00:00Z,27.8888,-97.5696,0.0,14.4,2 
TCOON,ioos:station:TCOON:042:1,2014-01-05T23:30:00Z,27.8888,-97.5696,0.0,14.0,2 
TCOON,ioos:station:TCOON:042:1,2014-01-06T00:00:00Z,27.8888,-97.5696,0.0,13.4,2 
TCOON,ioos:station:TCOON:042:1,2014-01-06T00:30:00Z,27.8888,-97.5696,0.0,13.0,2 
TCOON,ioos:station:TCOON:042:1,2014-01-06T01:00:00Z,27.8888,-97.5696,0.0,12.3,2 
TCOON,ioos:station:TCOON:042:1,2014-01-06T01:30:00Z,27.8888,-97.5696,0.0,11.8,2 
TCOON,ioos:station:TCOON:042:1,2014-01-06T02:00:00Z,27.8888,-97.5696,0.0,11.0,2 
TCOON,ioos:station:TCOON:042:1,2014-01-06T02:30:00Z,27.8888,-97.5696,0.0,10.5,2 
TCOON,ioos:station:TCOON:042:1,2014-01-06T03:00:00Z,27.8888,-97.5696,0.0,10.0,2 
TCOON,ioos:station:TCOON:042:1,2014-01-06T03:30:00Z,27.8888,-97.5696,0.0,9.8,2 
TCOON,ioos:station:TCOON:042:1,2014-01-06T04:00:00Z,27.8888,-97.5696,0.0,9.3,2 
TCOON,ioos:station:TCOON:042:1,2014-01-06T04:30:00Z,27.8888,-97.5696,0.0,9.0,2 
TCOON,ioos:station:TCOON:042:1,2014-01-06T05:00:00Z,27.8888,-97.5696,0.0,8.7,2 
TCOON,ioos:station:TCOON:042:1,2014-01-06T05:30:00Z,27.8888,-97.5696,0.0,8.1,2 
TCOON,ioos:station:TCOON:042:1,2014-01-06T06:00:00Z,27.8888,-97.5696,0.0,7.8,2 
TCOON,ioos:station:TCOON:042:1,2014-01-06T07:30:00Z,27.8888,-97.5696,0.0,6.7,2 
TCOON,ioos:station:TCOON:042:1,2014-01-06T08:00:00Z,27.8888,-97.5696,0.0,6.5,2 
TCOON,ioos:station:TCOON:042:1,2014-01-06T09:00:00Z,27.8888,-97.5696,0.0,5.9,2 
TCOON,ioos:station:TCOON:042:1,2014-01-06T09:30:00Z,27.8888,-97.5696,0.0,5.4,2 
TCOON,ioos:station:TCOON:042:1,2014-01-06T10:00:00Z,27.8888,-97.5696,0.0,5.3,2 
TCOON,ioos:station:TCOON:042:1,2014-01-06T10:30:00Z,27.8888,-97.5696,0.0,5.0,2 
TCOON,ioos:station:TCOON:042:1,2014-01-06T11:00:00Z,27.8888,-97.5696,0.0,4.9,2 
TCOON,ioos:station:TCOON:042:1,2014-01-06T11:30:00Z,27.8888,-97.5696,0.0,4.5,2 
TCOON,ioos:station:TCOON:042:1,2014-01-06T12:00:00Z,27.8888,-97.5696,0.0,4.4,2 
TCOON,ioos:station:TCOON:042:1,2014-01-06T12:30:00Z,27.8888,-97.5696,0.0,4.2,2 
TCOON,ioos:station:TCOON:042:1,2014-01-06T13:00:00Z,27.8888,-97.5696,0.0,4.0,2 
TCOON,ioos:station:TCOON:042:1,2014-01-06T13:30:00Z,27.8888,-97.5696,0.0,3.9,2 
TCOON,ioos:station:TCOON:042:1,2014-01-06T14:00:00Z,27.8888,-97.5696,0.0,3.8,2 
TCOON,ioos:station:TCOON:042:1,2014-01-06T14:30:00Z,27.8888,-97.5696,0.0,3.6,2 
TCOON,ioos:station:TCOON:042:1,2014-01-06T15:00:00Z,27.8888,-97.5696,0.0,3.5,2 
TCOON,ioos:station:TCOON:042:1,2014-01-06T15:30:00Z,27.8888,-97.5696,0.0,3.5,2 
TCOON,ioos:station:TCOON:042:1,2014-01-06T16:00:00Z,27.8888,-97.5696,0.0,3.5,2 
TCOON,ioos:station:TCOON:042:1,2014-01-06T16:30:00Z,27.8888,-97.5696,0.0,3.6,2 
TCOON,ioos:station:TCOON:042:1,2014-01-06T17:00:00Z,27.8888,-97.5696,0.0,3.7,2 
TCOON,ioos:station:TCOON:042:1,2014-01-06T17:30:00Z,27.8888,-97.5696,0.0,3.7,2 
TCOON,ioos:station:TCOON:042:1,2014-01-06T18:00:00Z,27.8888,-97.5696,0.0,3.8,2 
TCOON,ioos:station:TCOON:042:1,2014-01-06T18:30:00Z,27.8888,-97.5696,0.0,4.0,2 
TCOON,ioos:station:TCOON:042:1,2014-01-06T19:30:00Z,27.8888,-97.5696,0.0,4.6,2 
TCOON,ioos:station:TCOON:042:1,2014-01-06T20:00:00Z,27.8888,-97.5696,0.0,4.5,2 
TCOON,ioos:station:TCOON:042:1,2014-01-06T20:30:00Z,27.8888,-97.5696,0.0,4.6,2 
TCOON,ioos:station:TCOON:042:1,2014-01-06T21:00:00Z,27.8888,-97.5696,0.0,4.9,2 
TCOON,ioos:station:TCOON:042:1,2014-01-06T21:30:00Z,27.8888,-97.5696,0.0,5.1,2 
TCOON,ioos:station:TCOON:042:1,2014-01-06T22:00:00Z,27.8888,-97.5696,0.0,5.2,2 
TCOON,ioos:station:TCOON:042:1,2014-01-06T22:30:00Z,27.8888,-97.5696,0.0,5.3,2 
TCOON,ioos:station:TCOON:042:1,2014-01-06T23:30:00Z,27.8888,-97.5696,0.0,5.5,2 
TCOON,ioos:station:TCOON:042:1,2014-01-07T00:00:00Z,27.8888,-97.5696,0.0,5.4,2 
TCOON,ioos:station:TCOON:042:1,2014-01-07T00:30:00Z,27.8888,-97.5696,0.0,5.2,2 
TCOON,ioos:station:TCOON:042:1,2014-01-07T01:00:00Z,27.8888,-97.5696,0.0,5.0,2 
TCOON,ioos:station:TCOON:042:1,2014-01-07T01:30:00Z,27.8888,-97.5696,0.0,5.0,2 
TCOON,ioos:station:TCOON:042:1,2014-01-07T02:00:00Z,27.8888,-97.5696,0.0,5.0,2 
TCOON,ioos:station:TCOON:042:1,2014-01-07T02:30:00Z,27.8888,-97.5696,0.0,4.7,2 
TCOON,ioos:station:TCOON:042:1,2014-01-07T03:00:00Z,27.8888,-97.5696,0.0,4.6,2 
TCOON,ioos:station:TCOON:042:1,2014-01-07T03:30:00Z,27.8888,-97.5696,0.0,4.7,2 
TCOON,ioos:station:TCOON:042:1,2014-01-07T04:00:00Z,27.8888,-97.5696,0.0,5.1,2 
TCOON,ioos:station:TCOON:042:1,2014-01-07T04:30:00Z,27.8888,-97.5696,0.0,5.3,2 
TCOON,ioos:station:TCOON:042:1,2014-01-07T05:00:00Z,27.8888,-97.5696,0.0,3.5,2 
TCOON,ioos:station:TCOON:042:1,2014-01-07T05:30:00Z,27.8888,-97.5696,0.0,4.2,2 
TCOON,ioos:station:TCOON:042:1,2014-01-07T07:00:00Z,27.8888,-97.5696,0.0,2.6,2 
TCOON,ioos:station:TCOON:042:1,2014-01-07T07:30:00Z,27.8888,-97.5696,0.0,2.0,2 
TCOON,ioos:station:TCOON:042:1,2014-01-07T08:00:00Z,27.8888,-97.5696,0.0,2.1,2 
TCOON,ioos:station:TCOON:042:1,2014-01-07T08:30:00Z,27.8888,-97.5696,0.0,2.7,2 
TCOON,ioos:station:TCOON:042:1,2014-01-07T09:30:00Z,27.8888,-97.5696,0.0,3.1,2 
TCOON,ioos:station:TCOON:042:1,2014-01-07T10:00:00Z,27.8888,-97.5696,0.0,2.8,2 
TCOON,ioos:station:TCOON:042:1,2014-01-07T11:00:00Z,27.8888,-97.5696,0.0,2.7,2 
TCOON,ioos:station:TCOON:042:1,2014-01-07T12:00:00Z,27.8888,-97.5696,0.0,2.4,2 
TCOON,ioos:station:TCOON:042:1,2014-01-07T12:30:00Z,27.8888,-97.5696,0.0,1.7,2 
TCOON,ioos:station:TCOON:042:1,2014-01-07T13:00:00Z,27.8888,-97.5696,0.0,1.8,2 
TCOON,ioos:station:TCOON:042:1,2014-01-07T13:30:00Z,27.8888,-97.5696,0.0,2.2,2 
TCOON,ioos:station:TCOON:042:1,2014-01-07T14:00:00Z,27.8888,-97.5696,0.0,2.1,2 
TCOON,ioos:station:TCOON:042:1,2014-01-07T14:30:00Z,27.8888,-97.5696,0.0,2.1,2 
TCOON,ioos:station:TCOON:042:1,2014-01-07T15:00:00Z,27.8888,-97.5696,0.0,2.3,2 
TCOON,ioos:station:TCOON:042:1,2014-01-07T15:30:00Z,27.8888,-97.5696,0.0,2.5,2 
TCOON,ioos:station:TCOON:042:1,2014-01-07T16:00:00Z,27.8888,-97.5696,0.0,3.0,2 
TCOON,ioos:station:TCOON:042:1,2014-01-07T17:00:00Z,27.8888,-97.5696,0.0,3.6,2 
TCOON,ioos:station:TCOON:042:1,2014-01-07T17:30:00Z,27.8888,-97.5696,0.0,4.3,2 
TCOON,ioos:station:TCOON:042:1,2014-01-07T18:00:00Z,27.8888,-97.5696,0.0,4.7,2 
TCOON,ioos:station:TCOON:042:1,2014-01-07T18:30:00Z,27.8888,-97.5696,0.0,5.4,2 
TCOON,ioos:station:TCOON:042:1,2014-01-07T19:00:00Z,27.8888,-97.5696,0.0,5.9,2 
TCOON,ioos:station:TCOON:042:1,2014-01-07T19:30:00Z,27.8888,-97.5696,0.0,7.7,2 
TCOON,ioos:station:TCOON:042:1,2014-01-07T20:30:00Z,27.8888,-97.5696,0.0,8.5,2 
TCOON,ioos:station:TCOON:042:1,2014-01-07T21:00:00Z,27.8888,-97.5696,0.0,8.6,2 
TCOON,ioos:station:TCOON:042:1,2014-01-07T21:30:00Z,27.8888,-97.5696,0.0,8.8,2 
TCOON,ioos:station:TCOON:042:1,2014-01-07T22:00:00Z,27.8888,-97.5696,0.0,8.8,2 
TCOON,ioos:station:TCOON:042:1,2014-01-07T22:30:00Z,27.8888,-97.5696,0.0,8.9,2 
TCOON,ioos:station:TCOON:042:1,2014-01-07T23:00:00Z,27.8888,-97.5696,0.0,8.9,2 